Regional Weather Roundup
Issued by NWS

Home | Current Version | Previous Version | Text Only | Print | Product List | Glossary Off
Versions: 1 2 3 4 5 6 7 8 9 10 11 12 13 14 15 16 17 18 19 20 21 22 23 24 25 26 27 28 29 30 31 32 33 34 35 36 37 38 39 40 41 42 43 44 45 46 47 48 49 50

000
ASUS43 KMPX 041501
RWRMN
WEATHER ROUNDUP FOR MINNESOTA
NATIONAL WEATHER SERVICE TWIN CITIES/CHANHASSEN MN
1000 AM CDT MON MAY 04 2015


NOTE: "FAIR" INDICATES FEW OR NO CLOUDS BELOW 12,000 FEET WITH NO
SIGNIFICANT WEATHER AND/OR OBSTRUCTIONS TO VISIBILITY. N/A MEANS
CURRENT SKY AND/OR WEATHER CONDITIONS ARE NOT AVAILABLE.

MNZ060>063-068>070-041600-
   Twin Cities Metro

CITY           SKY/WX    TMP DP  RH WIND       PRES   REMARKS
TWIN CITIES    MOSUNNY   62  35  36 N12       30.16R
ST PAUL        SUNNY     62  35  36 NE12      30.17R
CRYSTAL        SUNNY     62  35  36 N9        30.15R
LAKEVILLE      SUNNY     59  37  44 NE9       30.16R
EDEN PRAIRIE   SUNNY     62  34  35 NE13      30.15R
SOUTH ST PAUL  SUNNY     62  34  36 N6        30.15S
LAKE ELMO      FAIR      61  39  44 NE7       30.17R
$$
MNZ001>005-007-008-013>017-022>024-027-028-041600-
   Northwest Minnesota

CITY           SKY/WX    TMP DP  RH WIND       PRES   REMARKS
BEMIDJI        SUNNY     54  31  40 NE5       30.22R
HALLOCK        SUNNY     55  39  54 S6        30.21S
ROSEAU         SUNNY     54  37  54 CALM      30.21S
WARROAD        SUNNY     52  36  54 W3        30.22S
THIEF RVR FALL SUNNY     55  30  38 CALM      30.23S
CROOKSTON      SUNNY     57  37  47 CALM      30.23R
FOSSTON        MOSUNNY   57  34  41 CALM      30.23R
DETROIT LAKES  MOSUNNY   54  37  54 CALM      30.23R
MOORHEAD       MOSUNNY   57  34  41 CALM      30.22R
PARK RAPIDS    PTSUNNY   56  37  49 CALM      30.21R
MAHNOMEN       FAIR      55  37  50 E3        30.21S
$$
MNZ006-009>011-018-025>026-041600-
   North Central Minnesota

CITY           SKY/WX    TMP DP  RH WIND       PRES   REMARKS
BAUDETTE       SUNNY     52  34  50 NW6       30.21R
FLAG ISLAND    SUNNY     45  37  76 N7        30.21R
INTL FALLS     SUNNY     53  32  44 N7        30.19R
WASKISH        SUNNY     54  37  54 W3        30.22S
BIG FORK       SUNNY     54  28  37 N3        30.21S
LONGVILLE      MOSUNNY   55  36  47 NW6       30.21R
GRAND RAPIDS   SUNNY     54  30  40 NW6       30.21R
CRANE LAKE     SUNNY     48  36  61 NW5       30.21R
COOK           SUNNY     52  32  46 NW8       30.19S
WALKER         FAIR      52  33  48 N5        30.22R
$$
MNZ012-019>021-037-041600-
   Northeast Minnesota

CITY           SKY/WX    TMP DP  RH WIND       PRES   REMARKS
DULUTH         SUNNY     57  31  37 NW16G23   30.16R
ELY            SUNNY     52  34  50 W7        30.16S
HIBBING        SUNNY     56  34  43 NW10      30.18R
EVELETH        SUNNY     52  34  50 NW6       30.18S
DULUTH HARBOR  SUNNY     57  37  47 N3        30.18R
TWO HARBORS    SUNNY     61  37  41 NW7       30.14R
SILVER BAY     SUNNY     61  32  33 NW7       30.13R
GRAND MARAIS     N/A     42  36  79 S10       30.12R
G MARAIS ARPRT SUNNY     54  30  40 W12G22    30.12R
$$
MNZ029>031-032-039>041-046>048-054>057-064-041600-
   West Central Minnesota

CITY           SKY/WX    TMP DP  RH WIND       PRES   REMARKS
FERGUS FALLS   MOSUNNY   61  36  39 E3        30.21S
WHEATON        MOSUNNY   57  34  41 CALM      30.22S
MORRIS         MOSUNNY   63  34  34 NE9       30.18S
ALEXANDRIA     SUNNY     59  33  37 NE8       30.21R
ELBOW LAKE     FAIR      60  35  39 E5        30.20R
WADENA         MOSUNNY   57  37  47 E6        30.21R
GLENWOOD       MOSUNNY   57  36  44 NE10      30.19S
APPLETON       MOSUNNY   63  34  34 E9        30.18R
BENSON         MOSUNNY   63  28  27 SE3       30.18R
ORTONVILLE     PTSUNNY   57  32  38 NE5       30.19R
MADISON        PTSUNNY   57  34  41 NE5       30.19R
WILLMAR        FAIR      63  34  34 NE9       30.19S
$$
MNZ033>034-036-042>043-049>051-058-059-041600-
   Central Minnesota

CITY           SKY/WX    TMP DP  RH WIND       PRES   REMARKS
ST CLOUD       SUNNY     62  33  33 N10       30.17S
SAUK CENTRE    FAIR      58  35  41 N7        30.19S
PAYNESVILLE    MOSUNNY   58  33  38 N7        30.18S
AITKIN         MOSUNNY   59  36  41 N6        30.19R
PINE RIVER     MOSUNNY   55  39  54 CALM      30.24R
BRAINERD       MOSUNNY   58  37  45 N6        30.21R
STAPLES        MOSUNNY   55  36  47 NE5       30.21R
LONG PRAIRIE   FAIR      57  34  41 NE8       30.20S
LITTLE FALLS   SUNNY     57  32  38 N5        30.19S
LITCHFIELD     MOSUNNY   61  34  36 NE8       30.18S
BUFFALO        SUNNY     60  35  39 NE10      30.18R
MAPLE LAKE     SUNNY     61  39  45 NE7       30.18R
$$
MNZ037-044-045-052-053-041600-
   East Central Minnesota

CITY           SKY/WX    TMP DP  RH WIND       PRES   REMARKS
PRINCETON      SUNNY     63  36  36 N8        30.17S
MORA           SUNNY     59  34  38 N6        30.19S
CAMBRIDGE      SUNNY     61  39  44 N12       30.15S
RUSH CITY      MOSUNNY   60  35  39 N12       30.17S
MOOSE LAKE     SUNNY     57  36  44 N12       30.17S
HINCKLEY       FAIR      61  36  39 N12       30.17S
CLOQUET        SUNNY     57  30  35 NW10G18   30.17S
MCGREGOR       SUNNY     55  36  47 NW5       30.21R
$$
MNZ071>073-080-081-089-090-097-098-041600-
   Southwest Minnesota

CITY           SKY/WX    TMP DP  RH WIND       PRES   REMARKS
MONTEVIDEO     MOSUNNY   64  36  34 E7        30.19R
GRANITE FALLS  MOSUNNY   62  33  33 NE7       30.20R
CANBY          MOSUNNY   59  32  36 E3        30.20R
MARSHALL       SUNNY     61  32  33 E7        30.18R
REDWOOD FALLS  SUNNY     65  30  27 NE9       30.17R
OLIVIA         MOSUNNY   61  30  31 E10       30.17R
PIPESTONE      SUNNY     61  30  31 E9G18     30.15S
WORTHINGTON    MOSUNNY   63  30  29 NE18G24   30.15F
JACKSON        MOSUNNY   63  28  27 NE20G28   30.14F
TRACY          SUNNY     61  33  35 NE12      30.17S
SLAYTON        SUNNY     60  30  31 NE15      30.17R
$$
MNZ065>067-074>077-082>085-091>093-041600-
   South Central Minnesota

CITY           SKY/WX    TMP DP  RH WIND       PRES   REMARKS
MANKATO        SUNNY     61  37  41 NE12      30.16
NEW ULM        SUNNY     63  30  29 NE13G18   30.16R
ST JAMES       SUNNY     64  27  24 N17G23    30.16S
FAIRMONT       SUNNY     64  30  27 NE18      30.14S
GLENCOE        MOSUNNY   62  36  37 NE10G17   30.16R
FARIBAULT      SUNNY     61  37  41 NE12G20   30.16R
OWATONNA       SUNNY     61  37  41 NE14      30.15R
WASECA         SUNNY     59  37  44 NE14      30.17R
ALBERT LEA     SUNNY     61  41  48 NE14      30.15R
$$
MNZ078>079-086>088-094>096-041600-
   Southeast Minnesota

CITY           SKY/WX    TMP DP  RH WIND       PRES   REMARKS
ROCHESTER      SUNNY     60  39  45 NE14      30.15R
RED WING       SUNNY     63  36  36 NE6       30.14R
STANTON        SUNNY     60  39  45 NE12      30.15R
DODGE CENTER   SUNNY     61  36  39 NE18G28   30.13S
WINONA         SUNNY     63  36  36 N8        30.13R
AUSTIN         SUNNY     61  37  41 NE16      30.14R
PRESTON        SUNNY     59  41  51 N12       30.14R
$$
ABBREVIATIONS USED IN REMARKS
   TC - TEMPERATURES IN CELSIUS
  WCI - WIND CHILL INDEX
   HX - HEAT INDEX
  VSB - VISIBILITY
$$


USA.gov is the U.S. government's official web portal to all federal, state and local government web resources and services.